Location: Estes Park
(40.3770°N, 105.5210°W)
Time: 09:02:16
(UTC-06:00)

ISS - Pass Details

Date: 14 October 2017
Orbit: 401 x 408 km, 51.6° (Epoch: 19 October)

Event Time Altitude Azimuth Distance (km) Brightness Sun altitude
Rises 20:34:27 0° 290° (WNW) 2,317 1.3 -25.7°
Reaches altitude 10° 20:37:12 10° 265° (W) 1,455 -0.1 -26.2°
Enters shadow 20:38:56 15° 233° (SW) 1,210 -1.0 -26.6°
